Regional Weather Roundup
Issued by NWS Portland, ME

Home | Current Version | Previous Version | Text Only | Print | Product List | Glossary On
Versions: 1 2 3 4 5 6 7 8 9 10 11 12 13 14 15 16 17 18 19 20 21 22 23 24 25 26 27 28 29 30 31 32 33 34 35 36 37 38 39 40 41 42 43 44 45 46 47 48 49 50
000
ASUS41 KGYX 230510
RWRGYX
WEATHER ROUNDUP FOR MAINE AND NEW HAMPSHIRE
NATIONAL WEATHER SERVICE GRAY ME
100 AM EDT SAT MAY 23 2015

MEZ002-005-006-010-012-015-018-020-021-024-026-027-029-230600-
MAINE

CITY           SKY/WX    TMP DP  RH WIND       PRES   REMARKS
PORTLAND       MOCLDY    50  33  52 NW12      30.05R
BAR HARBOR     MOCLDY    45  39  81 W6        29.97S
WISCASSET      CLOUDY    48  31  51 VRB6G17   30.04R
ROCKLAND       PTCLDY    46  30  53 W13       29.99S
FRYEBURG       CLOUDY    44  29  55 W8        30.09R
LEWISTONAUBURN CLOUDY    46  28  49 NW14G21   30.05R
AUGUSTA        CLOUDY    45  28  51 NW15G25   30.03R
WATERVILLE     MOCLDY    45  28  53 NW9       30.00R
BANGOR         MOCLDY    44  35  70 W10       29.98R
GREENVILLE       N/A     35  32  88 VRB5      29.93S
MILLINOCKET    CLOUDY    43  37  79 NW3       29.95S
HOULTON        PTCLDY    31  29  92 CALM      29.89F
PRESQUE ISLE   CLOUDY    34  28  80 CALM      29.90S
FRENCHVILLE    CLOUDY    34  29  82 NW7       29.88S
CARIBOU        CLOUDY    34  28  79 W5        29.88F
$$

NHZ002-005-008-009-011-012-014-230600-
NEW HAMPSHIRE

CITY           SKY/WX    TMP DP  RH WIND       PRES   REMARKS
PORTSMOUTH     MOCLDY    49  31  49 NW10      30.06R
ROCHESTER      CLOUDY    48  29  47 NW12G22   30.06R
NASHUA         CLEAR     50  33  51 NW20G28   30.11R
MANCHESTER     PTCLDY    49  32  52 NW14      30.09R
CONCORD        MOCLDY    47  30  51 NW17G25   30.10R
LACONIA        CLOUDY    45  27  49 W10G16    30.09R
PLYMOUTH       FAIR      42  31  64 NW6       30.11R
BERLIN         PTCLDY    36  18  48 NW8       30.08R
WHITEFIELD     MOCLDY    36  21  54 NW6       30.11S
JAFFREY        PTCLDY    43  32  65 VRB6      30.12R
KEENE          PTCLDY    45  30  57 N15G21    30.13R
LEBANON        PTCLDY    42  30  62 NW9       30.14R
MT WASHINGTON  SNOW      10  10 100 NW61G69     N/A  VSB 1/16WCI -18
$$

VTZ005-007-008-230600-
VERMONT

CITY           SKY/WX    TMP DP  RH WIND       PRES   REMARKS
ST JOHNSBURY     N/A     38  23  55 MISG      30.12S
MONTPELIER     CLOUDY    37  20  50 NW5       30.18R
BURLINGTON     PTCLDY    42  18  37 NW12      30.19R
$$

MAZ007-012-024-CTZ003-RIZ002-NYZ038-NYZ072-230600-
SOUTHERN NEW ENGLAND AND NY

CITY           SKY/WX    TMP DP  RH WIND       PRES   REMARKS
BOSTON         CLEAR     55  24  30 W9        30.07R
WORCESTER      CLEAR     50  22  33 W16       30.08S
NANTUCKET      CLOUDY    60  29  30 NW17G25   30.08R
PROVIDENCE     CLEAR     55  25  31 NW9G20    30.10R
HARTFORD       CLEAR     53  25  33 NW13      30.13R
ALBANY         CLOUDY    47  27  45 NW17      30.22R
NEW YORK CITY  CLEAR     59  34  39 N18       30.16R
$$

ANZ081-ANZ082-ANZ150-NHZ014-MEZ023>029-230600-
COASTAL MARINE OBSERVATIONS

STATION/POSITION TIME  TEMP    WIND        PRES    WAVE
                       AIR SEA DIR/SP/G            HT/PER
                 (UTC) (F)     (DEG/KT/KT) (MB)    (FT/S)
MOUNT DESERT ROC 0500   45     260/  7/  8   N/A
MATINICUS ROCK   0400   48     330/ 21/ 23   N/A
ISLE OF SHOALS   0400   53     310/ 15/ 15   N/A
JEFFREYS LEDGE   0403      48                N/A     2/ 3
CASHES LEDGE BUO 0450   51 49                N/A     2/10
GEORGES BANK BUO 0450   52 47  250/ 16/ 19   N/A     5/ 8
$$

.............KEY..............
   WCI - WIND CHILL
   TC  - TEMPERATURE IN CELSIUS
   VSB - VISIBILITY IN MILES
   HX  - HEAT INDEX
   FAIR- INDICATES FEW OR NO CLOUDS BELOW 12,000 FT, WITH NO
         SIGNIFICANT WEATHER AND/OR OBSTRUCTIONS TO VISIBILITY.





USA.gov is the U.S. government's official web portal to all federal, state and local government web resources and services.